Location: �clusier
(49.9361°N, 2.7869°E)
Time: 19:22:54
(UTC+00:00)

STARLINK-1521 - Visible Passes

Search period start: 24 January 2022 00:00
Search period end: 03 February 2022 00:00
Orbit: 546 x 548 km, 53.1° (Epoch: 24 January)

Date Brightness Start Highest point End Pass type
(mag) Time Alt. Az. Time Alt. Az. Time Alt. Az.
24 Jan 5.3 04:29:18 33° ENE 04:29:18 33° ENE 04:31:39 10° ENE visible
24 Jan 3.9 06:04:54 24° WNW 06:07:12 56° N 06:11:17 10° ENE visible
25 Jan 5.5 04:23:17 29° ENE 04:23:17 29° ENE 04:25:22 10° ENE visible
25 Jan 3.9 05:58:53 26° WNW 06:00:58 54° N 06:05:02 10° ENE visible
26 Jan 5.7 04:17:14 25° ENE 04:17:14 25° ENE 04:19:04 10° ENE visible
26 Jan 3.9 05:52:50 29° WNW 05:54:43 54° N 05:58:47 10° E visible
27 Jan 5.9 04:11:09 23° ENE 04:11:09 23° ENE 04:12:46 10° ENE visible
27 Jan 3.9 05:46:45 31° WNW 05:48:27 55° N 05:52:32 10° E visible
28 Jan 6.1 04:05:03 20° ENE 04:05:03 20° ENE 04:06:28 10° ENE visible
28 Jan 3.9 05:40:39 34° NW 05:42:12 57° N 05:46:17 10° E visible
29 Jan 6.2 03:58:57 19° ENE 03:58:57 19° ENE 04:00:09 10° ENE visible
29 Jan 3.8 05:34:32 38° NW 05:35:56 61° N 05:40:01 10° E visible
30 Jan 6.4 03:52:50 17° ENE 03:52:50 17° ENE 03:53:52 10° ENE visible
30 Jan 3.7 05:28:26 42° NW 05:29:39 66° NNE 05:33:45 10° E visible
31 Jan 6.5 03:46:45 15° ENE 03:46:45 15° ENE 03:47:35 10° ENE visible
31 Jan 3.6 05:22:20 49° NW 05:23:21 73° NNE 05:27:28 10° ESE visible
01 Feb 6.7 03:40:40 14° ENE 03:40:40 14° ENE 03:41:18 10° ENE visible
01 Feb 3.5 05:16:16 58° WNW 05:17:02 82° NNE 05:21:10 10° ESE visible
02 Feb 6.8 03:34:38 12° E 03:34:38 12° E 03:35:00 10° E visible
02 Feb 3.4 05:10:14 70° WNW 05:10:42 87° SSW 05:14:50 10° ESE visible
02 Feb 5.1 06:46:28 10° W 06:49:49 24° SW 06:53:10 10° SSE visible
